Regional Weather Roundup
Issued by NWS

Home | Current Version | Previous Version | Graphics & Text | Print | Product List | Glossary Off
Versions: 1 2 3 4 5 6 7 8 9 10 11 12 13 14 15 16 17 18 19 20 21 22 23 24 25 26 27 28 29 30 31 32 33 34 35 36 37 38 39 40 41 42 43 44 45 46 47 48 49 50

000
ASUS43 KFSD 261410
RWRSD

WEATHER ROUNDUP FOR SOUTH DAKOTA
NATIONAL WEATHER SERVICE SIOUX FALLS SD
900 AM CDT MON JUN 26 2017

NOTE: "FAIR" INDICATES FEW OR NO CLOUDS BELOW 12,000 FEET WITH NO
SIGNIFICANT WEATHER AND/OR OBSTRUCTIONS TO VISIBILITY.


SDZ001>005-009-010-012>017-261500-
NORTHWEST AND NORTH CENTRAL SOUTH DAKOTA

CITY           SKY/WX    TMP DP  RH WIND       PRES   REMARKS
BUFFALO          N/A     62  42  47 SE13      30.18S
FAITH            N/A     59  44  57 SE12      30.26S
MOBRIDGE       SUNNY     60  46  59 CALM      30.25F
$$

SDZ012>016-024>037-041>051-057-063-072>074-261500-
SOUTHWEST AND SOUTH CENTRAL SOUTH DAKOTA

CITY           SKY/WX    TMP DP  RH WIND       PRES   REMARKS
RAPID CTY ARPT SUNNY     62  40  44 S9        30.26S
PIERRE         SUNNY     58  46  64 E7        30.25S
CUSTER         SUNNY     56  34  43 CALM      30.32S
ELLSWORTH AFB  SUNNY     63  39  40 S14       30.26R
PHILIP         SUNNY     58  45  62 E6        30.26S
PINE RIDGE     SUNNY     59  45  59 E5        30.26S
SPEARFISH      FAIR      61  43  51 CALM      30.25S
WINNER         FAIR      62  48  60 E7        30.25S
$$

SDZ004>011-016>023-039-040-261500-
NORTHEAST SOUTH DAKOTA

CITY           SKY/WX    TMP DP  RH WIND       PRES   REMARKS
ABERDEEN       SUNNY     59  47  64 N3        30.27S
WATERTOWN      SUNNY     56  45  66 N6        30.25R
BROOKINGS      SUNNY     58  45  62 NE8       30.25S
SISSETON         N/A     59  44  57 N6        30.25S
$$

SDZ017-020-022-023-036>040-048>070-261500-
SOUTHEAST SOUTH DAKOTA

CITY           SKY/WX    TMP DP  RH WIND       PRES   REMARKS
SIOUX FALLS    SUNNY     60  52  74 NE8       30.23S
HURON          SUNNY     58  49  72 NE5       30.26S
CHAMBERLAIN    SUNNY     62  50  64 E6        30.25S
MITCHELL       SUNNY     61  50  67 NE7       30.26R
YANKTON        SUNNY     60  52  74 NE6       30.23R
$$

ABBREVIATIONS USED IN REMARKS
   TC - TEMPERATURE IN CELSIUS
  WCI - WIND CHILL INDEX
   HX - HEAT INDEX
  VSB - VISIBILITY





USA.gov is the U.S. government's official web portal to all federal, state and local government web resources and services.